Location: Koslow
(50.3020°N, 18.5663°E)
Time: 08:05:20
(UTC+00:00)

STARLINK-1357 - Pass Details

Date: 09 October 2020
Orbit: 548 x 551 km, 53.0° (Epoch: 31 October)

Event Time Altitude Azimuth Distance (km) Brightness Sun altitude
Exits shadow 02:01:48 37° 78° (ENE) 868 5.0 -28.3°
Drops below altitude 10° 02:04:28 10° 93° (E) 1,828 7.0 -28.0°
Sets 02:06:43 0° 96° (E) 2,722 8.0 -27.6°
